This is the latest recevied weather packets stored in our database for station/object KC9VAF. If no packets are shown the sender has not sent any weather packets the latest 10 day(s).
| Time | Temp. | Humidity | Pressure | Rain* | Wind** | Luminosity | Snow |
|---|---|---|---|---|---|---|---|
| 1778258187 | 17.78° C | 30% | 1010.7 hPa | 0 mm | - | 626 W/m² | - |
| 1778257884 | 17.78° C | 31% | 1011 hPa | 0 mm | - | 713 W/m² | - |
| 1778257580 | 17.78° C | 31% | 1010.8 hPa | 0 mm | - | 484 W/m² | - |
| 1778257278 | 17.78° C | 31% | 1011 hPa | 0 mm | - | 518 W/m² | - |
| 1778256974 | 17.22° C | 35% | 1010.9 hPa | 0 mm | - | 672 W/m² | - |
| 1778256672 | 17.22° C | 34% | 1011.3 hPa | 0 mm | - | 582 W/m² | - |
| 1778256370 | 16.67° C | 31% | 1011.1 hPa | 0 mm | - | 707 W/m² | - |
| 1778256067 | 16.11° C | 36% | 1011.4 hPa | 0 mm | - | 603 W/m² | - |
| 1778255764 | 16.11° C | 34% | 1011.3 hPa | 0 mm | - | 582 W/m² | - |
| 1778255461 | 15.56° C | 34% | 1011.5 hPa | 0 mm | - | 519 W/m² | - |
| 1778255158 | 16.11° C | 34% | 1011.4 hPa | 0 mm | - | 511 W/m² | - |
| 1778254855 | 15.56° C | 35% | 1011.3 hPa | 0 mm | - | 697 W/m² | - |
| 1778254552 | 15.56° C | 36% | 1011.4 hPa | 0 mm | - | 560 W/m² | - |
| 1778254248 | 15.56° C | 36% | 1011.5 hPa | 0 mm | - | 520 W/m² | - |
| 1778253946 | 15° C | 38% | 1011.4 hPa | 0 mm | - | 521 W/m² | - |
| 1778253640 | 15.56° C | 39% | 1011.5 hPa | 0 mm | - | 444 W/m² | - |
| 1778253337 | 15.56° C | 40% | 1011.3 hPa | 0 mm | - | 490 W/m² | - |
| 1778253034 | 15° C | 41% | 1011.6 hPa | 0 mm | - | 520 W/m² | - |
| 1778252732 | 15° C | 41% | 1011.6 hPa | 0 mm | - | 448 W/m² | - |
| 1778252427 | 15° C | 43% | 1011.7 hPa | 0 mm | - | 559 W/m² | - |
| 1778252124 | 15° C | 44% | 1011.5 hPa | 0 mm | - | 487 W/m² | - |
| 1778251820 | 15° C | 47% | 1011.7 hPa | 0 mm | - | 520 W/m² | - |
| 1778251518 | 14.44° C | 48% | 1011.5 hPa | 0 mm | - | 581 W/m² | - |
| 1778251216 | 13.89° C | 49% | 1011.4 hPa | 0 mm | - | 557 W/m² | - |
| 1778250913 | 13.89° C | 54% | 1011.5 hPa | 0 mm | - | 513 W/m² | - |
* Rain latest hour (hover to see other rain measurements)
** Current wind speed in m/s (hover to see current wind gust speed)